Location: Koszewo
(53.2689°N, 14.9087°E)
Time: 20:39:23
(UTC+00:00)

Daily predictions for brighter satellites

Satellite Brightness Start Highest point End
(mag) Time Altitude Azimuth Time Altitude Azimuth Time Altitude Azimuth
Cosmos 2360 Rocket 4.2 17:28:02 10° W 17:32:52 28° NW 17:37:44 10° NNE
ADEOS 3.7 17:29:47 10° SE 17:34:53 58° ENE 17:40:01 10° N
CSL-04 Rocket 4.5 17:32:32 10° ESE 17:37:07 31° ENE 17:41:42 10° N
CZ-4B DEB 4.4 17:33:01 10° SE 17:38:19 53° ENE 17:43:39 10° N
CZ-4B R/B 3.9 17:33:53 10° ESE 17:38:40 34° ENE 17:43:26 10° N
Cosmos 1356 Rocket 3.7 17:34:35 10° NNW 17:38:47 75° W 17:42:56 10° S
YAOGAN 11 4.1 17:34:58 10° NNE 17:39:15 88° W 17:43:30 10° SSW
Meteor 2-17 Rocket 4.5 17:34:10 10° N 17:40:17 88° E 17:46:22 10° S
Cosmos 1743 4.3 17:38:26 10° SW 17:41:47 38° WNW 17:45:08 10° N
Cosmos 2219 Rocket 3.9 17:40:07 10° WSW 17:45:19 36° NW 17:50:31 10° NNE
Cosmos 2344 4.5 17:38:26 10° WNW 17:45:21 41° N 17:53:32 10° ENE
Nadezhda 4 Rocket 4.1 17:39:09 10° N 17:45:26 65° ENE 17:51:42 10° SSE
Cosmos 1500 Rocket 4.2 17:43:23 10° SSE 17:47:13 32° E 17:51:04 10° NNE
NOSS 3-3 (C) 4.0 17:43:21 10° SSW 17:48:35 49° SE 17:54:45 10° NE
YAOGAN 1 3.1 17:44:33 10° S 17:48:48 62° WSW 17:53:05 10° NNW
Cosmos 1125 Rocket 4.2 17:45:24 10° NNW 17:50:30 57° WSW 17:55:36 10° S
Cosmos 2322 Rocket 4.5 17:46:09 10° W 17:50:33 22° NNW 17:54:56 10° NNE
Cosmos 2026 Rocket 4.4 17:44:49 10° N 17:50:42 42° ENE 17:56:27 10° SE
CZ-4B R/B 3.4 17:46:07 10° SSE 17:50:54 74° ENE 17:55:50 10° NNW
Cosmos 2237 Rocket 2.2 17:45:43 10° SSW 17:51:19 77° ESE 17:56:58 10° NE
ARGOS Delta rocket 3.9 17:47:12 10° SSE 17:51:53 58° ENE 17:56:22 10° N
In-Cosmos 22 4.2 17:46:12 10° NNW 17:51:54 86° ENE 17:57:25 10° SSE
Cosmos 1766 Rocket 4.1 17:47:36 10° SSW 17:51:58 67° WNW 17:56:25 10° N
Cosmos 1570 Rocket 4.0 17:46:58 10° SSW 17:52:11 67° ESE 17:57:24 10° NNE
USA 267 3.4 17:45:59 10° ENE 17:52:35 81° NNW 17:59:09 10° WSW
Cosmos 1943 Rocket 3.3 17:48:56 10° NW 17:54:12 46° WSW 17:59:28 10° S
Meteor 2-10 4.3 17:49:20 10° S 17:54:56 61° E 18:00:35 10° NNE
Iridium 4 Rocket 4.1 17:50:55 10° NNW 17:54:57 50° W 17:59:05 10° SSW
Cosmos 2150 Rocket 4.0 17:50:01 10° NNW 17:55:13 90° E 18:00:22 10° SSE
USA 186 2.6 17:52:43 10° SE 17:55:38 32° ENE 17:58:33 10° N
SJ-6B 2.5 17:52:36 10° SSE 17:56:10 72° ENE 17:59:46 10° N
Okean 3 Rocket 3.5 17:52:40 10° S 17:57:06 79° E 18:01:31 10° NNE
SL-08 R/B 3.6 17:52:22 10° NNE 17:57:11 50° E 18:01:57 10° S
Cosmos 1743 Rocket 4.3 17:53:24 10° SSE 17:57:11 30° E 18:01:02 10° NNE
Cosmos 839 Rocket 4.4 17:49:36 10° SSW 17:57:48 67° SE 18:04:27 10° NE
Cosmos 2298 Rocket 4.1 17:52:57 10° NNW 17:58:17 86° WSW 18:03:37 10° SSE
NOSS 3-3 (A) 3.9 17:53:15 10° SSW 17:58:37 59° SE 18:04:58 10° NE
Cosmos 1408 Rocket 3.7 17:54:53 10° S 17:59:10 52° E 18:03:29 10° NNE
SeaSat 1 2.4 17:55:21 10° NE 18:00:17 69° ESE 18:05:11 10° SSW
Helios 1A 3.4 17:57:10 10° NNE 18:01:01 39° E 18:04:50 10° SSE
Cosmos 1092 Rocket 4.3 17:55:07 10° N 18:01:16 48° ENE 18:07:23 10° SE
USA 32 4.3 17:57:29 10° N 18:02:35 47° ENE 18:07:38 10° SSE
Cosmos 158 Rocket 3.8 17:58:35 10° SSW 18:03:25 73° ESE 18:08:19 10° NNE
GEOS 3 Rocket 3.8 18:00:53 12° ESE 18:05:42 58° NE 18:10:46 10° NW
COSMO-SKYMED 1 4.0 18:01:46 10° N 18:05:53 43° WNW 18:10:00 10° SW
Sich 1 3.3 18:02:16 10° SSE 18:06:21 44° E 18:10:29 10° NNE
Okean O Rocket 2.5 18:03:42 12° ESE 18:07:18 32° ENE 18:11:13 10° N
Cosmos 1656 Rocket 3.7 18:02:31 10° NNW 18:08:12 76° ENE 18:13:46 10° SE
CARTOSAT-1 3.7 18:04:14 10° SE 18:08:21 51° ENE 18:12:29 10° N
Cosmos 2297 3.7 18:04:00 10° NNW 18:09:39 70° NE 18:15:18 10° SE
Cosmos 1607 4.2 18:05:36 10° SSW 18:11:44 48° ESE 18:17:52 10° NE
Aureole 3 Rocket 3.5 18:07:40 10° SSE 18:12:41 44° E 18:16:26 10° NNE
CSL-04 Debris 4.3 18:08:36 10° SE 18:13:56 57° ENE 18:19:17 10° N
DMSP B5D1-3 4.4 18:09:02 10° NNE 18:14:09 82° ESE 18:19:15 10° SSW
Cosmos 2369 Rocket 2.3 18:08:48 10° NNW 18:14:31 65° NE 18:19:41 13° SE
CZ-4 R/B 1.2 18:12:32 10° SSE 18:16:26 84° ENE 18:20:25 10° NNW
Helios 1B rocket 4.4 18:13:04 10° SSW 18:16:27 29° W 18:19:51 10° NW
TRACE 4.5 18:13:04 10° NNE 18:16:27 79° WNW 18:19:48 10° SSW
Meteor 1-23 Rocket 4.2 18:11:13 10° NNW 18:16:54 79° ENE 18:22:38 10° SSE
SPOT 5 3.9 18:14:53 16° ESE 18:17:10 24° ENE 18:20:39 10° N
PAYLOAD B 4.2 18:11:50 10° SSE 18:17:27 80° ENE 18:23:05 10° NNW
Cosmos 1464 Rocket 4.1 18:13:12 10° S 18:19:34 89° E 18:26:00 10° N
NOSS 3-4 (A) 3.9 18:14:38 10° NW 18:21:17 84° SW 18:28:32 12° SE
NOSS 3-4 (C) 3.9 18:14:44 10° NW 18:21:24 85° SW 18:28:35 12° SE
ARIANE 6 FM1 Upper Stage 4.1 18:18:34 10° SSE 18:21:35 19° ESE 18:21:45 19° ESE
Cosmos 1980 4.1 18:16:30 10° SW 18:22:10 68° NW 18:27:52 10° NNE
Cosmos 1634 Rocket 4.4 18:16:49 10° SSE 18:22:37 40° E 18:28:28 10° NNE
Terra 3.4 18:22:17 15° E 18:24:05 18° NE 18:27:15 10° NNE
CZ-4B R/B 3.0 18:22:08 10° SSE 18:26:12 83° WSW 18:30:27 10° NNW
Cosmos 2228 Rocket 3.4 18:25:00 10° N 18:29:26 47° ENE 18:32:38 18° SE
Okean 1-7 4.3 18:26:09 10° N 18:29:40 24° ENE 18:30:54 21° E
Cosmos 1805 Rocket 3.4 18:25:51 10° S 18:30:08 69° E 18:34:30 10° NNE
Cosmos 1980 Rocket 4.5 18:29:17 10° NNW 18:31:48 13° N 18:34:20 10° NNE
Cosmos 1441 Rocket 3.5 18:29:41 11° SSE 18:32:51 36° E 18:36:10 10° NNE
Cosmos 1633 Rocket 4.1 18:32:47 23° ESE 18:33:47 25° E 18:37:23 10° NNE
Cosmos 2084 Rocket 4.2 18:31:41 10° S 18:35:25 30° SE 18:37:01 23° E
Resurs 01 Rocket 1.6 18:31:09 10° SSE 18:35:35 89° ENE 18:40:01 10° NNW
Cosmos 1975 2.9 18:32:13 10° S 18:35:59 50° E 18:39:47 10° NNE
Cosmos 192 4.4 18:31:14 10° NNW 18:36:06 60° ENE 18:39:14 21° SE
Cosmos 1627 Rocket 4.4 18:35:19 10° N 18:41:37 85° E 18:47:48 10° S
Okean-O 3.2 18:39:41 25° ESE 18:41:38 39° ENE 18:45:44 10° N
Feng Yun 1-1 Rocket 4.4 18:36:08 10° SSE 18:42:01 87° ENE 18:48:01 10° NNW
Cosmos 1862 Rocket 3.8 18:37:50 10° N 18:42:11 50° ENE 18:44:35 24° SE
MOS 1 Rocket 4.2 18:41:01 23° ESE 18:43:36 38° ENE 18:48:33 10° N
Cosmos 1707 Rocket 3.6 18:40:57 10° N 18:45:21 60° ENE 18:47:57 23° SSE
Cosmos 2034 Rocket 4.0 18:40:34 10° S 18:46:44 85° W 18:52:57 10° N
USA 306 2.3 18:44:20 10° WNW 18:47:38 80° SSW 18:48:52 39° ESE
ERS-1 Rocket 3.8 18:46:18 25° E 18:48:07 32° ENE 18:52:33 10° N
ISS -3.7 18:44:58 10° W 18:48:18 66° S 18:49:13 43° ESE
Meteor 2-12 Rocket 4.4 18:46:30 10° N 18:52:42 87° ENE 18:58:52 10° S
Cosmos 1666 Rocket 3.9 18:51:16 27° SE 18:53:07 42° E 18:57:13 10° NNE
Cosmos 2279 Rocket 4.2 18:48:40 12° SSE 18:54:08 46° E 19:00:01 10° NNE
ACS3 Solar Sail 1.9 18:48:36 11° SSE 18:54:56 82° ENE 19:01:22 10° NNW
SL-16 R/B 2.1 18:51:11 10° SSW 18:56:50 77° ESE 19:02:32 10° NE
Cosmos 1805 3.8 18:55:40 10° SSW 18:59:14 53° WNW 19:02:51 10° N
IKONOS-2 4.5 18:58:24 10° NNE 19:02:30 55° ESE 19:04:31 27° SSE
Okean 3 3.3 19:02:39 10° N 19:06:51 81° E 19:08:31 36° SSE
Cosmos 1943 3.6 19:07:43 28° SSE 19:09:49 38° ESE 19:15:00 10° NE
ATLAS CENTAUR R/B 3.2 19:06:55 10° W 19:10:09 27° NNW 19:13:32 10° NNE
ATLAS 2AS CENTAUR R/B 3.6 19:05:35 10° NW 19:12:07 39° NNE 19:16:25 19° ENE
Cosmos 783 Rocket 4.4 19:07:27 10° SSW 19:12:43 82° ESE 19:17:59 10° NNE
SL-24 R/B 4.3 19:09:51 23° S 19:12:52 83° E 19:17:48 10° N
PSLV R/B 3.4 19:14:51 64° SSE 19:15:20 89° NE 19:18:48 10° NNW
CSL-04 Rocket 4.2 19:12:02 10° S 19:17:14 55° W 19:22:26 10° NNW
Cosmos 2263 4.4 19:12:43 10° NW 19:18:24 67° WSW 19:21:31 27° S
Ariane Rocket 3.7 19:17:37 33° E 19:18:24 35° ENE 19:23:00 10° N
CZ-4B R/B 4.0 19:13:54 10° S 19:19:07 49° W 19:24:17 10° NNW
MOS 1 4.2 19:17:16 28° SSE 19:20:24 86° ENE 19:26:08 10° NNW
IRS-1C Rocket 4.2 19:23:12 43° ESE 19:24:39 59° ENE 19:29:51 10° N
USA 186 4.3 19:24:54 10° SW 19:27:23 20° W 19:29:54 10° NW
USA 267 3.5 19:31:14 24° ENE 19:35:24 65° N 19:41:54 10° WNW
Cosmos 2237 Rocket 4.1 19:31:03 10° W 19:35:57 30° NW 19:40:52 10° NNE
SeaSat 1 4.3 19:33:09 10° NNE 19:37:25 30° NW 19:41:41 10° W
Cosmos 2056 Rocket 4.0 19:34:10 10° NNW 19:39:13 44° NE 19:39:51 42° ENE
Cosmos 2266 Rocket 3.9 19:34:22 10° N 19:40:43 73° ENE 19:42:48 45° SSE
Cosmos 1766 3.6 19:41:43 48° WSW 19:42:22 57° WNW 19:46:02 10° N
Okean O Rocket 2.8 19:41:03 21° SSW 19:43:29 39° W 19:47:39 10° NNW
GEOS 3 Rocket 4.4 19:41:58 31° S 19:43:51 42° SW 19:48:47 10° NW
CZ-4 R/B 4.3 19:49:52 10° WSW 19:51:32 12° W 19:53:12 10° WNW
SL-24 R/B - RUBIN 2 4.3 19:46:22 10° NW 19:52:52 88° NE 19:54:07 59° SE
SPOT 5 3.2 19:54:01 43° SW 19:54:57 52° W 19:59:13 10° NNW
Cosmos 2369 Rocket 3.8 19:53:20 10° NW 19:58:10 29° WSW 20:01:28 17° SSW
Okean 2 4.2 19:54:57 10° NNW 19:58:47 44° W 19:59:08 43° WSW
Cosmos 1420 Rocket 3.9 19:55:10 10° NNW 20:00:24 72° ENE 20:00:34 72° ENE
ARIANE 6 FM1 Upper Stage 4.2 19:56:05 10° SW 19:58:11 28° SW 19:58:11 28° SW
Terra 1.7 20:00:58 84° SW 20:01:04 86° WSW 20:05:49 10° NNW
Cosmos 2344 4.0 19:53:29 10° NW 20:01:12 67° NE 20:05:08 39° ESE
BREEZE-M DEB (TANK) 3.7 19:47:41 10° W 20:02:36 56° SSW 20:03:29 51° S
Aureole 3 4.3 19:58:13 10° NNW 20:02:40 60° W 20:03:54 46° SSW
Okean 1-7 3.7 20:03:01 10° NNW 20:07:09 47° W 20:07:26 46° WSW
Cosmos 1633 Rocket 4.1 20:09:43 32° WSW 20:11:16 44° WNW 20:15:31 10° N
Resurs 01 Rocket 4.4 20:10:24 10° WSW 20:12:39 14° W 20:14:54 10° NW
Cosmos 2084 Rocket 4.3 20:10:03 10° WSW 20:13:11 43° W 20:13:11 43° W
Cosmos 1538 Rocket 4.0 20:13:37 51° SW 20:15:00 80° WNW 20:20:24 10° NNE
RESURS DK-1 3.6 20:12:11 10° NNW 20:14:56 36° N 20:14:56 36° N
Cosmos 1656 3.8 20:10:31 10° NNW 20:16:10 61° NE 20:16:15 61° ENE
Meteor 1-24 Rocket 3.7 20:10:46 10° N 20:16:38 67° ENE 20:16:38 67° ENE
Cosmos 1980 Rocket 3.8 20:13:33 10° NNW 20:18:00 23° NNE 20:19:05 22° NE
Okean-O 4.1 20:17:08 28° WSW 20:18:05 30° W 20:22:00 10° NNW
MOS 1 Rocket 4.5 20:20:11 36° SW 20:21:37 44° W 20:26:46 10° NNW
Spot 2 Rocket 3.6 20:23:41 69° W 20:23:41 69° W 20:28:42 10° NNW
ISS -0.7 20:21:45 10° W 20:22:09 12° W 20:22:09 12° W
ERS-1 Rocket 3.6 20:26:14 46° WSW 20:26:43 48° W 20:31:36 10° NNW
ACS3 Solar Sail 3.8 20:34:39 10° SW 20:39:41 24° W 20:44:43 10° NNW
SPOT 3 Rocket 3.9 20:41:30 60° W 20:41:30 60° W 20:46:14 10° NNW
Cosmos 1371 Rocket 4.3 20:36:09 10° NNW 20:40:37 63° WNW 20:40:37 63° WNW
SL-16 R/B 4.0 20:36:36 10° W 20:41:32 30° NW 20:46:30 10° NNE
Meteor 2-5 Rocket 3.8 20:38:51 10° NNW 20:44:37 80° WNW 20:44:37 80° WNW
ATLAS CENTAUR R/B 3.9 20:46:14 10° NW 20:48:40 16° N 20:49:32 15° NNE
Cosmos 1943 3.9 20:49:01 14° WSW 20:53:44 51° NW 20:59:17 10° NNE
Cosmos 1603 4.0 20:55:35 62° N 20:55:35 62° N 21:00:28 10° NNE
Ariane Rocket 3.9 20:57:45 43° W 20:57:45 43° W 21:02:07 10° NNW
Cosmos 1697 Rocket 3.3 20:53:46 10° NNW 20:58:31 51° NNE 20:58:31 51° NNE
Meteor 2-10 Rocket 4.2 21:02:20 54° N 21:02:20 54° N 21:06:42 10° NNE
ATLAS 2AS CENTAUR R/B 2.6 20:56:59 10° NW 21:03:49 79° NNE 21:03:49 79° NNE
Cosmos 1452 Rocket 4.5 21:11:33 10° NNW 21:15:13 45° NNW 21:15:13 45° NNW
USA 267 3.2 21:18:34 82° NW 21:18:34 82° NW 21:24:53 10° WNW
Cosmos 2322 Rocket 4.4 21:19:36 10° NNW 21:23:23 18° NNE 21:25:32 15° NE
Cosmos 1745 Rocket 4.4 21:23:56 10° N 21:29:08 61° NNE 21:29:08 61° NNE
Terra 4.3 21:39:40 14° W 21:39:40 14° W 21:41:51 10° NW
SL-16 R/B 3.8 21:48:18 10° NNW 21:53:03 27° NE 21:53:03 27° NE
Cosmos 1980 Rocket 3.3 21:57:17 10° NNW 22:00:49 40° NNW 22:00:49 40° NNW
Cosmos 2333 Rocket 4.1 22:04:03 10° NNW 22:08:33 23° NNE 22:09:33 22° NE
Cosmos 2344 4.4 22:07:47 10° NW 22:15:07 48° WSW 22:15:07 48° WSW
Cosmos 1833 Rocket 4.2 22:28:33 31° NNE 22:28:33 31° NNE 22:31:22 10° NNE
Cosmos 2360 Rocket 3.7 22:46:09 10° NNW 22:50:33 32° NNE 22:50:33 32° NNE
ATLAS 2AS CENTAUR R/B 4.3 22:48:24 10° WNW 22:51:13 22° WNW 22:51:13 22° WNW
Cosmos 2219 Rocket 3.9 22:58:45 10° NNW 23:03:30 27° NE 23:04:14 26° NE
Cosmos 2322 Rocket 3.5 23:03:25 10° NNW 23:07:17 37° N 23:07:17 37° N
CZ-2C R/B 4.5 23:13:08 24° NE 23:13:08 24° NE 23:16:43 10° N
Cosmos 2082 Rocket 3.6 23:26:45 34° NE 23:26:45 34° NE 23:29:53 10° NNE
SL-16 R/B 3.8 23:32:13 10° NNW 23:34:52 29° NNW 23:34:52 29° NNW
COSMOS 2455 4.4 23:45:18 28° ENE 23:45:18 28° ENE 23:48:39 10° NE
CZ-2D R/B 4.4 23:41:04 10° NE 23:44:08 16° E 23:44:08 16° E
COSMOS 2406 4.3 23:50:26 41° NNE 23:50:26 41° NNE 23:54:06 10° NNE
Cosmos 2333 Rocket 3.5 23:48:09 10° NNW 23:51:31 36° NNW 23:51:31 36° NNW
